Location: ??????
(55.6130°N, 37.7882°E)
Time: 11:19:01
(UTC+00:00)

Cosmos 1980 - Pass Details

Date: 14 April 2024
Orbit: 840 x 845 km, 71.0° (Epoch: 19 May)

Event Time Altitude Azimuth Distance (km) Brightness Sun altitude
Exits shadow 01:31:00 - 216° (SW) 2,733 5.8 -7.9°
Reaches altitude 10° 01:31:44 10° 216° (SW) 2,458 5.6 -7.8°
Maximum altitude 01:37:23 83° 304° (NW) 856 3.7 -7.1°
Drops below altitude 10° 01:43:05 10° 34° (NNE) 2,470 7.2 -6.4°
Sets 01:45:32 0° 35° (NE) 3,408 8.1 -6.1°
